GFSNW_925_temp_231.txt.gz
Temp
10 11 11 11 12 13 12 13 14 13 12 14 18 19 21 22 24 23 23 23 26 27 27 27 26 26 28 28 28 26 28 27 26 28 30 30 29 28 29 27 26 28 28 26
10 11 11 11 12 13 13 13 15 13 14 15 18 19 20 22 23 24 22 22 24 26 26 24 26 27 28 27 26 26 26 25 25 26 28 29 26 27 28 28 27 26 25 26
10 11 10 10 13 12 14 13 12 12 13 19 19 19 20 20 23 23 23 23 24 24 24 25 25 26 25 24 24 16 22 25 25 25 26 28 27 28 27 27 25 26 26 26
10 10 10 10 13 12 15 14 14 14 13 14 18 20 20 20 20 22 22 22 22 22 22 24 24 25 24 20 19 21 23 23 25 25 26 27 27 27 27 26 27 25 26 27
7 9 10 10 11 12 14 13 16 17 18 16 17 18 19 20 21 21 20 21 22 22 22 23 23 23 23 23 22 22 23 22 23 23 25 25 24 25 26 26 26 27 26 27
5 6 8 9 11 11 12 10 15 18 15 15 15 17 19 20 21 21 22 21 21 22 22 23 23 21 23 24 22 23 22 21 19 18 22 22 20 23 24 25 25 25 25 26
4 5 6 7 7 9 8 9 13 14 13 17 15 17 18 19 20 21 21 21 20 22 20 22 21 19 19 19 19 21 19 19 17 15 16 16 22 25 26 25 26 26 27 27
4 4 5 5 6 6 7 6 9 11 13 14 16 16 17 18 19 18 20 20 21 21 19 12 13 12 13 14 16 18 19 16 14 14 15 18 20 23 24 24 25 26 26 26
4 5 5 5 5 6 6 6 7 7 11 11 14 14 16 15 15 16 17 18 18 17 15 11 12 13 14 15 15 17 17 16 14 12 14 16 22 25 25 25 22 25 26 26
5 5 5 5 5 5 5 5 6 6 6 7 7 11 13 13 13 13 13 15 13 14 13 13 12 13 16 16 17 16 16 15 14 14 14 16 22 24 25 21 23 27 27 26
5 5 5 5 5 5 6 4 5 5 4 5 6 6 8 9 11 13 10 13 13 13 13 12 12 13 14 15 19 20 16 14 14 14 14 15 22 23 22 24 25 26 25 25
5 5 5 5 5 5 6 5 5 5 5 4 4 5 5 6 6 7 6 8 8 7 11 12 12 11 13 16 17 21 18 16 17 17 17 20 22 23 24 25 25 25 25 24
5 5 5 5 5 5 5 5 5 6 5 6 6 7 7 5 5 6 6 5 6 4 5 5 7 9 7 13 16 17 19 20 17 18 20 20 22 23 22 24 22 23 23 21
5 5 5 5 5 5 4 4 5 7 8 6 7 6 7 8 6 6 7 7 5 4 4 5 7 9 6 9 8 9 13 12 16 16 16 15 18 17 15 16 17 18 19 19
5 5 5 5 5 5 4 5 5 7 10 7 7 7 7 7 8 8 8 8 8 6 5 5 7 7 7 8 8 10 14 14 13 12 11 11 11 12 12 13 14 15 14 14
5 5 5 5 5 4 4 3 4 6 7 8 8 6 6 7 7 8 8 7 7 6 6 6 7 8 9 8 9 14 16 17 17 14 11 11 13 13 13 11 12 13 12 13
5 5 5 5 4 4 4 4 4 5 6 7 8 8 5 6 7 7 8 8 7 6 5 6 8 9 8 7 9 13 15 15 16 15 11 12 14 14 15 15 15 15 16 15
5 5 5 5 3 4 4 4 4 5 6 8 7 7 7 6 6 6 7 7 5 5 5 6 7 9 7 8 11 13 14 14 15 15 14 14 15 15 15 15 15 14 13 13
5 5 4 4 3 2 3 4 4 5 6 6 7 9 9 7 6 7 6 5 5 7 6 8 9 9 8 10 12 13 14 14 14 15 14 14 14 14 14 14 14 13 12 11
3 4 3 3 3 3 3 3 2 3 4 7 8 12 9 9 7 7 7 6 7 7 10 9 8 10 12 13 14 14 14 14 14 12 12 13 13 13 12 13 13 12 11 7
3 3 2 3 3 3 3 4 5 5 5 6 10 11 9 10 8 8 10 8 9 8 11 9 10 11 13 13 11 11 11 11 12 12 13 13 13 12 12 8 8 5 3 2
6 4 2 3 4 5 6 6 7 8 10 8 9 10 10 9 9 9 8 8 9 8 10 8 9 12 11 11 10 10 10 10 11 11 11 10 7 8 5 3 2 1 1 0
7 7 5 6 6 6 7 6 9 10 10 8 8 6 6 6 7 8 8 6 7 10 7 8 12 13 11 10 10 8 8 6 6 4 3 2 1 1 1 1 0 0 0 0
8 7 5 7 6 8 10 11 11 10 10 9 8 6 7 7 8 8 6 9 9 7 7 9 11 8 8 8 6 5 4 3 2 1 1 1 1 -0 -0 -0 -0 -0 -0 -1
8 9 7 7 8 8 8 8 8 8 7 6 5 7 7 7 6 8 8 6 7 8 10 10 8 7 7 6 5 4 2 2 3 2 1 0 0 1 -0 -0 -0 -1 -2 -2
9 8 7 8 7 4 5 6 5 6 7 8 7 7 7 7 8 7 7 8 9 10 11 8 8 7 6 5 3 2 2 4 4 3 2 1 1 1 1 -1 -1 -2 -2 -2
9 7 8 8 8 6 5 6 6 6 6 6 8 7 8 8 7 7 10 9 10 8 7 7 6 6 5 3 2 1 1 3 4 3 2 2 1 1 1 1 -0 -1 -2 -3

GFSNW_925_temp_234.txt.gz
Temp
4 5 6 10 11 11 11 13 13 14 13 13 16 17 19 20 23 26 26 26 27 27 27 28 26 26 27 29 28 27 27 27 26 28 30 30 30 29 29 26 26 27 26 25
4 5 5 10 10 10 12 14 16 13 14 13 15 17 19 21 21 23 25 25 25 26 25 25 27 27 28 28 28 25 26 25 24 26 28 29 28 29 28 28 27 25 23 25
4 4 6 10 11 11 12 13 12 12 13 17 17 17 18 19 22 23 25 24 24 24 23 26 26 26 26 26 26 18 22 25 26 24 26 28 27 29 29 28 25 25 25 26
4 4 6 10 10 11 12 13 14 14 13 14 18 19 19 19 20 22 24 24 23 23 22 24 24 25 23 22 17 22 22 23 25 26 27 27 27 27 27 27 27 26 26 26
4 4 6 10 10 11 11 13 15 15 16 15 16 18 20 20 21 22 21 22 24 23 22 23 22 23 22 23 21 21 23 22 23 23 25 25 25 26 26 26 26 27 27 27
3 4 8 10 10 11 12 14 18 17 15 15 15 17 19 20 21 21 23 22 22 22 22 22 22 22 22 23 24 23 22 21 21 20 23 23 20 23 24 25 26 26 25 26
3 5 10 10 10 11 13 14 17 15 16 15 16 17 19 20 21 21 22 22 22 23 20 21 21 20 20 22 22 22 22 21 20 18 18 16 22 25 25 25 25 25 26 26
3 5 9 10 10 10 11 13 13 16 15 17 17 17 18 19 20 20 21 22 23 20 20 15 12 15 17 19 22 21 21 19 15 15 16 18 20 22 22 23 24 26 26 27
3 4 5 7 9 10 10 11 12 13 15 14 18 18 18 17 18 18 20 21 22 18 16 12 14 15 17 18 18 21 20 19 15 12 14 16 21 24 25 23 20 24 25 25
3 4 5 5 6 7 9 6 9 11 8 8 10 15 15 17 17 17 18 18 18 15 14 14 14 15 17 15 16 15 16 16 15 15 14 16 21 23 24 20 23 25 26 26
4 4 4 5 6 6 8 5 6 8 5 6 7 7 11 12 16 15 12 14 12 13 15 14 11 12 14 15 19 18 15 14 14 15 14 15 21 22 20 22 23 24 24 24
4 4 3 4 5 6 7 5 5 7 5 4 5 5 5 6 6 8 6 9 8 7 13 11 11 11 13 15 15 19 15 16 16 16 17 19 22 22 23 21 19 19 20 20
5 4 4 4 4 5 6 5 5 5 3 4 5 6 5 5 6 6 7 6 6 4 4 5 7 13 9 13 13 14 18 18 15 17 19 20 21 17 15 15 15 16 17 16
5 5 5 5 5 5 5 5 6 6 6 6 5 6 7 6 6 6 6 5 4 3 4 4 6 8 6 9 9 10 12 13 15 16 17 15 16 13 13 12 12 13 13 12
5 5 5 5 5 6 6 6 7 7 8 6 6 8 8 8 8 7 7 6 5 5 5 6 7 6 7 8 8 10 14 14 13 11 11 11 11 13 13 13 13 12 11 11
5 5 5 5 5 5 5 3 5 6 8 9 8 7 7 8 8 8 8 8 6 6 6 5 6 7 8 8 9 14 16 16 16 15 15 14 14 15 15 14 13 12 11 12
5 5 5 5 5 5 5 6 6 6 7 8 7 6 5 7 8 8 7 8 7 7 6 6 8 8 8 7 9 13 13 14 14 14 14 14 15 15 15 15 15 15 15 15
5 5 4 4 5 5 5 4 5 6 6 8 8 6 7 7 7 6 8 7 6 6 6 5 7 9 8 7 11 13 14 14 14 15 15 15 15 15 15 15 15 14 14 14
5 4 4 4 4 2 4 4 5 6 6 7 8 9 7 8 7 7 7 8 6 6 6 7 9 9 8 9 11 13 13 13 14 15 15 14 14 14 14 14 14 13 13 12
4 4 3 2 3 4 5 4 3 3 4 8 9 11 8 9 8 7 7 7 8 7 9 10 9 9 11 13 13 14 12 12 13 12 12 12 13 12 13 13 11 11 10 7
4 3 3 3 4 4 4 4 5 4 5 8 10 11 9 10 8 8 10 8 9 8 11 10 10 11 13 11 11 12 11 11 12 12 12 12 11 11 9 6 5 4 3 3
7 4 3 3 6 5 6 6 8 9 10 9 10 10 10 10 10 9 9 9 9 9 10 8 9 12 12 11 11 10 10 9 9 7 6 4 4 4 3 2 1 1 0 0
8 7 4 6 6 6 7 7 9 10 10 10 9 7 7 8 10 9 9 8 8 11 8 9 11 12 11 11 10 8 7 6 5 3 2 1 1 0 1 0 0 0 -0 -0
8 7 5 7 6 8 10 11 11 10 10 10 9 7 8 9 8 8 7 9 9 8 8 9 11 9 9 8 7 6 4 2 1 1 1 1 0 0 -0 -0 -1 -1 -1 -1
9 9 7 8 9 8 8 9 9 9 9 8 7 8 9 9 7 8 8 7 8 9 10 10 8 8 8 7 6 4 3 2 2 2 1 0 0 1 -0 -0 -1 -1 -2 -2
9 9 8 9 6 5 6 6 6 8 7 8 9 8 7 7 8 8 8 9 9 11 10 8 9 8 8 6 3 3 3 4 3 3 2 1 1 1 0 -1 -2 -2 -2 -3
10 8 9 9 8 6 5 6 6 7 7 7 9 7 8 9 8 8 10 10 11 9 8 8 8 7 5 3 2 1 1 3 3 3 2 2 2 1 2 1 0 -1 -2 -3

GFSNW_925_temp_237.txt.gz
Temp
5 5 4 4 5 5 6 8 12 11 12 12 13 14 16 18 19 21 21 22 22 22 23 23 23 23 25 25 25 25 24 22 21 24 27 27 25 25 23 22 22 21 22 21
5 4 4 4 4 5 6 9 11 11 12 13 13 15 16 18 19 19 21 21 22 24 23 22 23 24 25 25 24 24 23 21 20 22 24 26 25 25 25 24 22 23 20 21
4 4 4 4 4 4 5 10 10 12 12 14 15 14 15 16 19 19 20 21 21 21 21 22 23 24 21 24 20 18 22 22 20 20 22 24 24 24 24 23 20 22 22 23
4 4 4 4 4 4 5 11 11 12 12 12 14 15 16 16 17 18 20 20 20 21 20 21 20 23 22 20 18 21 21 20 23 22 23 23 22 23 23 22 23 22 23 24
4 4 3 3 4 4 6 10 11 12 12 13 14 15 16 16 17 18 17 19 20 21 20 19 21 22 21 22 19 20 20 19 22 21 22 22 21 22 22 23 23 23 23 23
4 3 3 3 4 4 6 10 11 13 13 13 13 14 16 17 17 18 19 19 19 20 21 20 20 20 20 21 19 18 19 17 16 19 21 19 19 20 22 22 23 23 22 23
4 3 3 3 4 4 5 11 12 13 12 13 14 15 16 17 17 17 18 19 19 19 18 18 17 17 19 18 18 19 17 17 15 16 16 15 20 23 22 20 21 21 22 23
4 3 3 4 5 5 6 11 12 13 12 13 14 15 16 17 18 17 18 19 20 18 17 13 12 12 17 19 17 17 17 16 12 12 13 18 19 21 20 20 21 22 21 22
3 2 5 4 6 7 9 11 14 12 13 13 15 15 15 15 15 14 18 18 18 17 14 11 13 14 16 16 17 19 18 17 16 12 13 17 20 21 21 21 17 20 21 21
2 3 3 8 8 13 11 11 12 9 8 7 10 14 14 16 16 15 15 17 15 16 13 12 13 14 16 16 17 15 16 15 16 16 15 17 19 21 21 18 18 17 18 16
2 3 4 8 9 10 9 7 10 8 5 5 6 7 11 13 15 15 13 14 11 10 13 13 11 11 14 16 18 17 15 14 15 16 15 15 19 19 18 16 15 14 14 14
3 3 4 5 7 9 8 5 7 9 5 4 5 5 5 6 7 9 7 10 10 8 13 12 11 10 10 14 15 18 16 17 16 16 16 18 18 13 13 14 14 14 13 13
4 3 4 4 5 6 7 5 6 6 3 4 5 6 5 7 7 8 7 6 5 5 5 7 7 11 8 13 14 15 17 16 15 14 16 16 13 13 13 13 13 13 13 13
4 4 4 4 5 6 6 5 5 6 5 5 4 5 6 6 7 6 6 4 3 3 4 5 6 7 5 7 8 9 11 11 12 13 12 13 13 12 12 13 12 13 12 12
4 4 4 4 4 4 5 5 5 6 6 5 4 6 6 6 6 5 5 5 4 3 4 5 6 4 5 5 6 7 11 11 10 10 11 11 11 12 12 12 12 12 11 11
5 5 4 5 5 5 5 3 5 6 6 5 5 4 6 6 6 6 5 5 5 5 4 4 5 7 7 7 7 11 13 13 13 12 12 11 11 12 13 12 12 12 11 10
5 5 5 5 5 5 4 4 5 6 7 4 5 4 4 6 7 6 6 6 6 5 5 5 6 6 7 6 6 12 12 12 12 12 11 11 12 11 12 12 13 13 13 13
5 4 4 5 6 5 4 5 6 7 6 6 6 4 4 6 6 6 6 5 5 4 5 5 5 6 4 6 8 10 11 12 12 12 12 11 12 12 12 12 12 11 11 11
4 4 5 5 4 3 4 6 7 7 5 5 5 6 5 6 5 5 5 6 4 5 4 4 6 5 6 7 8 10 11 11 11 11 11 11 11 11 11 11 9 8 8 5
4 5 2 3 4 4 6 4 3 3 2 4 6 5 5 6 5 4 4 4 5 5 5 6 4 6 9 10 10 10 9 10 10 10 9 9 7 7 5 4 4 4 3 2
4 2 2 4 4 4 3 4 5 4 5 4 6 7 6 7 5 5 5 4 4 6 6 5 5 7 9 9 8 8 8 7 6 6 4 4 5 4 4 3 2 2 1 1
6 4 3 4 4 4 4 4 4 5 6 6 6 6 6 6 6 5 4 6 5 7 6 4 5 5 8 7 6 5 5 5 4 4 3 3 3 3 2 1 1 0 0 -0
7 5 3 3 4 5 5 4 6 5 6 5 5 5 4 5 6 4 4 5 4 6 3 5 6 7 8 7 6 4 3 3 3 2 1 1 0 0 0 0 -0 -1 -1 -1
4 4 3 3 3 5 5 7 6 6 5 6 4 3 4 3 4 4 5 6 5 4 2 6 3 6 5 5 4 2 2 1 1 0 -0 -1 -1 -1 -2 -2 -2 -2 -2 -2
5 5 4 5 4 5 4 4 6 5 6 4 4 4 3 4 3 4 5 5 5 6 6 3 2 5 5 3 3 2 1 1 1 0 0 -0 -0 -1 -1 -1 -2 -2 -2 -3
7 7 5 3 3 4 4 2 3 5 2 4 3 4 3 5 4 6 5 7 6 5 3 2 5 5 4 2 3 2 2 1 1 1 0 -0 -2 -2 -2 -2 -2 -3 -3 -3
8 4 3 3 3 2 6 4 3 6 4 4 4 5 6 3 5 6 5 4 3 4 2 3 5 3 1 1 1 1 1 1 1 1 1 0 -0 -1 -1 -2 -2 -2 -2 -3

GFSNW_925_temp_240.txt.gz
Temp
4 5 5 5 5 5 5 5 6 9 11 11 11 9 13 16 18 20 19 20 22 20 20 21 21 21 23 23 22 22 21 20 20 22 25 26 24 24 24 21 21 18 18 19
4 4 5 5 5 5 5 5 6 9 9 13 10 11 14 16 17 19 19 19 20 20 20 21 21 21 23 22 22 21 21 19 19 21 23 24 24 23 23 22 19 21 19 20
4 4 5 5 4 4 4 5 6 7 9 9 9 11 13 15 17 18 19 19 20 20 20 20 21 21 21 22 22 19 21 20 20 21 21 23 23 23 24 22 18 19 19 21
4 4 5 4 4 4 4 5 6 9 9 7 10 11 14 14 15 17 19 18 18 19 18 19 20 21 20 19 17 20 21 21 20 20 22 23 22 21 21 20 19 19 21 20
4 4 4 5 4 4 4 4 6 8 10 11 10 12 13 14 15 17 16 17 20 19 18 18 18 20 20 20 20 20 19 20 20 21 21 21 20 20 20 20 21 20 22 21
4 4 4 5 4 4 4 4 5 8 10 10 11 12 13 14 16 16 18 18 18 18 19 19 19 19 19 20 19 18 18 17 16 18 19 19 19 19 20 22 21 21 20 21
3 4 4 4 4 4 4 5 5 6 8 11 11 13 14 15 15 15 17 18 16 18 17 17 16 16 18 18 18 17 15 16 13 13 15 16 20 22 22 20 20 20 19 20
4 4 4 4 4 4 4 4 6 7 8 11 12 13 14 15 15 16 17 17 19 16 16 13 13 12 18 17 16 16 17 14 11 12 11 16 19 19 20 19 19 19 18 19
3 3 4 4 4 4 4 4 5 6 8 10 14 13 14 13 14 14 16 17 17 17 14 11 13 14 16 15 17 17 16 15 14 11 13 15 20 20 20 19 17 17 16 15
3 3 4 4 4 4 3 4 4 6 7 7 13 12 13 15 14 14 13 15 15 15 11 15 12 14 15 15 16 16 15 12 16 14 13 14 18 20 21 17 17 14 14 14
3 3 2 2 2 3 3 4 5 5 6 6 7 8 14 14 14 14 13 14 11 11 14 13 10 10 13 16 18 17 15 14 15 13 14 15 18 19 18 15 13 13 13 13
3 2 1 3 4 3 4 4 5 7 6 5 6 5 5 7 11 15 8 15 13 12 12 12 11 10 10 13 15 17 16 16 16 15 15 16 13 13 13 13 13 13 13 13
3 2 4 7 8 7 4 6 6 6 5 4 5 6 6 8 7 9 13 6 6 5 7 9 9 10 10 11 10 15 15 17 15 17 17 15 12 12 12 12 12 13 12 12
3 3 5 7 7 7 8 6 5 6 5 5 4 5 6 5 7 9 7 5 4 4 5 5 6 9 6 8 9 9 11 12 13 15 13 13 12 11 10 10 10 11 11 11
4 3 4 4 5 7 7 5 5 5 7 5 4 5 5 5 6 6 6 6 5 5 5 6 7 5 6 5 6 7 10 10 10 10 10 10 11 10 9 10 10 10 11 11
4 4 4 4 5 6 9 4 5 6 7 5 4 4 5 5 6 6 6 5 5 4 4 4 4 6 6 7 7 10 10 10 10 10 10 10 10 10 10 11 11 10 10 9
4 4 5 4 5 6 4 4 5 5 5 4 4 4 4 5 6 5 6 6 5 4 4 4 5 6 6 6 7 10 10 11 11 11 10 10 11 11 12 11 11 12 12 10
4 5 5 5 5 5 5 5 6 7 6 5 5 4 4 5 5 5 5 5 5 4 5 4 5 6 5 6 7 8 10 10 11 11 11 11 11 11 11 10 10 9 7 5
5 5 6 6 4 3 4 5 7 7 6 5 4 5 5 5 4 5 5 5 5 4 5 4 5 5 6 7 7 8 9 10 10 10 9 8 7 6 5 5 5 4 3 2
6 6 2 3 3 4 7 7 3 3 2 4 5 4 5 5 4 4 4 3 4 5 5 5 4 6 8 8 8 8 8 8 9 9 7 6 5 4 4 3 3 2 2 2
4 2 2 4 4 4 3 4 3 3 5 4 4 6 5 5 5 4 4 3 4 6 6 6 6 6 7 8 7 6 6 5 4 4 4 4 4 4 3 2 2 1 1 1
4 4 4 5 4 3 4 4 4 5 6 5 6 5 5 5 5 5 3 6 5 7 5 5 6 6 6 5 5 4 3 3 3 4 3 3 3 3 2 1 0 -0 -1 -1
6 3 3 2 3 3 5 4 5 6 5 4 3 4 4 4 5 4 5 5 4 6 4 5 6 6 6 4 3 2 2 2 2 1 1 0 -0 -0 -0 -1 -1 -1 -2 -2
2 3 0 1 1 4 4 5 5 4 4 5 3 2 4 1 5 3 5 6 5 3 2 6 3 4 4 3 2 3 2 1 1 0 -0 -1 -1 -1 -2 -2 -1 -2 -3 -3
4 3 1 3 4 2 2 2 4 3 4 3 2 2 3 2 3 3 4 4 4 5 6 3 2 3 3 2 1 1 1 0 -0 -0 -1 -1 -1 -2 -2 -3 -3 -3 -3 -3
5 5 3 2 1 1 4 2 4 4 1 4 3 3 2 4 4 5 4 6 5 4 2 0 3 3 2 2 1 0 1 0 0 -0 -0 -1 -3 -3 -3 -3 -3 -3 -3 -4
7 3 -1 0 -1 1 4 -0 2 4 2 2 3 4 5 2 4 5 4 3 3 1 1 2 3 2 1 1 1 -0 1 1 0 0 -1 -2 -2 -2 -3 -3 -4 -4 -4 -4

GFSNW_925_temp_246.txt.gz
Temp
4 4 4 4 4 5 4 4 4 7 6 6 6 5 8 10 10 12 14 16 17 18 19 19 19 20 21 21 20 21 21 18 19 21 23 22 22 20 20 19 19 17 16 18
4 4 4 4 4 4 4 4 4 6 6 5 5 7 8 9 10 10 13 14 16 18 19 17 18 19 20 19 21 20 20 18 18 19 20 21 22 21 22 19 17 18 17 18
3 4 4 4 4 4 4 4 3 3 3 4 6 6 7 8 10 10 11 14 15 16 16 18 18 19 20 19 21 18 21 18 19 21 21 21 20 20 20 21 16 19 17 21
4 4 4 4 4 4 3 3 3 4 4 3 4 5 6 8 8 11 13 12 15 15 14 16 16 18 19 19 17 18 20 19 18 18 20 21 22 22 19 20 22 20 21 19
3 3 4 4 4 4 4 3 3 3 4 5 5 6 6 6 8 10 11 11 13 16 15 16 18 17 17 18 18 18 18 19 17 19 19 20 21 21 19 19 18 20 19 18
3 3 3 4 4 3 4 2 4 3 5 4 4 6 6 7 8 9 10 9 10 14 16 17 17 16 16 17 18 17 17 17 15 18 19 19 18 19 17 18 18 19 19 19
3 3 3 3 3 3 3 3 4 4 4 4 5 6 6 7 8 8 10 11 10 14 16 18 16 16 15 16 16 16 15 16 13 18 16 16 19 19 20 19 18 19 20 19
3 3 3 3 3 3 3 3 4 4 4 5 5 6 6 7 8 8 9 11 11 15 16 12 12 13 13 15 16 15 15 14 11 15 14 16 18 19 18 19 18 18 19 18
3 3 3 3 3 3 3 3 3 5 4 4 6 5 6 5 6 7 8 10 12 12 14 10 11 12 13 14 15 15 14 14 14 10 15 18 19 19 18 20 18 17 17 16
3 4 3 3 3 4 3 3 2 4 4 5 5 4 5 6 6 7 7 10 10 11 12 12 11 12 14 14 16 14 13 12 13 10 12 12 15 18 19 18 18 15 15 14
4 4 4 3 3 3 3 3 3 4 4 4 5 6 6 6 7 7 8 10 10 10 11 11 10 9 13 14 18 16 14 13 12 11 11 14 16 18 18 15 12 13 12 12
4 4 4 4 3 4 3 3 3 3 4 5 6 6 7 7 7 7 7 7 10 11 11 9 9 8 8 13 15 16 17 17 14 15 14 14 11 13 11 12 12 11 11 11
4 4 4 4 4 4 3 3 3 3 3 3 4 4 6 7 7 6 6 7 8 9 10 8 8 11 9 12 15 16 15 15 15 16 13 10 10 9 10 10 10 10 10 10
4 3 3 3 3 3 3 4 3 3 3 4 3 5 5 6 6 5 6 6 7 6 7 6 7 9 6 10 11 14 13 14 14 12 10 10 10 9 9 9 10 10 11 11
4 4 3 3 3 3 3 3 4 4 5 4 2 3 5 6 5 6 5 6 7 8 7 7 8 5 7 6 7 8 10 12 14 15 11 13 10 8 9 9 10 10 10 10
4 3 3 4 3 2 3 2 2 3 5 3 5 3 4 4 5 5 6 7 8 6 6 5 4 6 8 9 10 10 10 10 11 10 10 10 9 8 9 9 9 9 9 9
3 3 4 5 5 3 2 4 4 3 6 4 4 3 3 4 5 6 5 5 4 5 4 5 5 6 7 7 11 9 9 10 9 9 10 9 9 9 9 9 9 8 6 4
4 3 4 4 4 3 4 4 4 4 3 3 5 4 4 4 4 4 4 4 4 3 4 4 5 5 5 8 8 9 9 9 9 9 9 9 8 8 7 7 6 4 3 2
4 4 5 7 3 2 4 4 4 6 4 4 4 6 6 4 3 3 3 4 5 3 5 5 6 5 7 8 7 8 8 8 7 6 6 5 5 4 4 4 3 2 2 2
5 5 3 3 3 3 4 4 2 2 2 2 3 3 5 4 4 4 4 4 5 5 5 4 5 6 6 7 7 8 8 7 7 6 4 4 4 4 3 4 3 3 2 1
4 3 3 4 3 3 2 3 4 3 5 4 4 4 5 4 5 4 3 4 4 6 5 6 6 6 5 6 5 5 5 5 4 4 4 3 4 3 2 2 1 0 -0 -0
4 3 3 3 3 3 4 4 4 5 5 4 5 4 4 3 3 4 3 5 5 6 4 5 5 5 5 4 3 3 3 3 3 4 4 4 3 2 1 0 -0 -1 -2 -2
4 2 3 3 3 5 5 5 5 5 4 4 4 4 4 4 4 4 5 4 3 3 0 4 5 5 4 3 2 1 1 1 1 1 1 1 0 -0 -0 -1 -2 -2 -4 -4
1 3 4 4 5 5 5 5 5 3 4 4 3 3 4 2 4 3 5 4 4 3 1 6 2 4 3 2 1 1 1 1 1 0 -0 -1 -1 -2 -2 -2 -3 -4 -5 -5
3 3 3 4 3 3 3 2 3 2 3 3 3 3 4 4 4 4 5 4 4 5 5 3 3 3 2 1 1 1 1 0 -0 -0 -1 -1 -2 -2 -3 -3 -3 -4 -5 -5
3 3 3 0 4 5 1 1 1 2 0 2 2 4 4 4 4 5 5 7 5 4 2 0 3 2 1 0 0 0 1 0 -0 -1 -1 -1 -2 -2 -4 -5 -5 -5 -5 -6
5 1 -2 -2 1 3 3 -1 1 2 3 2 3 4 5 3 5 6 5 4 3 0 1 3 2 1 0 0 0 -0 0 -0 -0 -1 -1 -2 -3 -4 -5 -6 -7 -7 -6 -6